Гаррисберг

США     40°16′21″N   76°51′57″W
В апреле 2022 года жителям России запретили посещать сайт meteo.paraplan.net по решению Генеральной прокуратуры. Аудитория сайта уменьшилась в 10 раз. Владельцы сайта не видят смысла в поддержке погодного сервера в таких условиях. Сайт будет закрыт в октябре.
темп.,
°C
ветер,
м/с
пор.,
м/с
влажн.,
%
обл.,
%
осадки,
мм/ч
давл.,
гПа
погр.,
м
4 октября, вт
вт423:00+10св1162100 0.0 102310
02:00+9с31074100 0.2 1022417
05:00+8ссз41185100 0.5 1020490
08:00+7с51391100 2.1 1019575
11:00+8с41191100 2.8 1020764
14:00+8с61291100 6.2 1018688
17:00+9с61295100 3.4 1016599
20:00+9ссз51195100 5.3 1017477
5 октября, ср
ср523:00+9ссз61293100 1.4 1016464
02:00+10ссз61294100 3.3 1015473
05:00+10ссз51192100 0.4 1015419
08:00+11ссз51191100 1.6 1015394
11:00+13ссз4986100 0.0 1016410
14:00+11ссз3887100 0.8 1016279
17:00+14зсз228299 0.0 101635
20:00+11сз11815 0.0 101710
6 октября, чт
чт623:00+10зсз22830 0.0 101710
02:00+8зсз22853 0.0 101711
05:00+8сз22885 0.0 101712
08:00+9зсз228662 0.0 101727
11:00+17зсз2362100 0.0 1017372
14:00+20з2353100 0.0 1015830
17:00+21юз2364100 0.0 1014226
20:00+15ююз1178100 0.0 101511
7 октября, пт
пт723:00+13з22845 0.0 101514
02:00+11зюз22895 0.0 101511
05:00+10з118838 0.0 101510
08:00+11зюз22845 0.0 101553
11:00+18з46576 0.0 1015636
14:00+18сз7861100 0.0 10151338
17:00+12сз61174100 0.3 1017805
20:00+10ссз610580 0.3 1020883
8 октября, сб
сб823:00+6сз412695 0.0 1022452
02:00+4зсз22745 0.0 102230
05:00+3зсз11805 0.0 102310
08:00+4з11735 0.0 102423
11:00+11сз57445 0.0 10251544
14:00+13зсз57401 0.0 10221692
17:00+14зсз47450 0.0 10211737
20:00+8з23620 0.0 102230